Wetbulb
39.39 33.97 33.67 37.28 40.04 41.83 41.86 41.47 40.83 44.72 48.54 47.02 46.20 46.75 48.73 51.12 50.45 50.54 51.81 52.76 53.29 54.39 56.42 57.50 56.71 56.58 60.12 61.33 61.88 62.92 65.71 65.99 67.44 66.72 65.41 63.11 61.67 61.98 62.42 63.24 64.57 65.18 64.82 64.62
35.67 32.78 38.35 41.22 41.47 40.04 39.22 37.55 37.84 42.03 44.80 45.27 45.78 45.55 48.99 50.68 50.65 51.60 52.28 52.60 52.57 51.81 54.24 56.13 55.47 59.16 61.04 61.93 63.34 64.91 65.71 66.33 66.33 65.62 64.43 63.41 62.29 61.80 62.01 62.47 63.34 65.15 64.90 64.71
34.49 37.06 41.92 39.85 38.96 38.60 38.47 36.84 37.92 38.58 42.64 43.87 41.92 39.88 42.89 47.01 48.46 49.64 50.68 52.17 52.62 52.45 53.34 54.95 56.07 59.16 60.41 62.46 63.06 64.99 65.56 65.94 66.18 65.40 64.14 62.66 62.27 62.09 61.50 61.16 61.27 62.90 64.36 64.23
33.88 38.23 38.48 38.57 36.62 39.24 34.88 41.74 41.06 39.83 37.93 33.44 41.63 32.48 40.63 44.44 45.83 48.02 48.69 50.18 49.33 51.76 54.05 54.27 54.39 58.52 60.54 61.74 62.84 65.28 65.84 65.75 65.40 64.40 63.30 61.94 60.17 59.46 60.10 60.19 61.14 63.02 64.30 63.68
32.98 34.68 35.13 35.71 37.63 41.27 36.93 42.81 41.53 40.97 37.46 36.59 37.49 32.59 39.08 42.46 42.97 44.95 47.61 49.23 51.36 52.97 52.15 53.61 55.87 60.12 60.99 62.34 62.87 65.07 64.74 64.41 63.91 63.46 62.56 60.92 59.46 59.49 59.61 60.95 61.42 61.28 61.68 62.95
36.44 40.04 37.77 36.44 39.35 39.57 40.85 39.90 39.41 39.46 34.97 30.07 35.74 34.79 36.69 39.73 42.44 44.72 47.76 50.00 50.95 50.90 51.45 53.47 58.97 61.40 61.43 63.20 64.33 64.43 63.55 62.98 63.05 62.61 61.98 60.96 60.29 59.55 59.17 59.54 59.61 60.10 60.70 61.18
35.25 36.03 39.16 40.53 35.85 38.08 35.83 30.58 25.53 24.22 26.82 28.36 37.69 34.92 38.32 41.95 44.59 45.84 46.46 48.95 50.22 50.83 54.09 58.57 59.85 60.52 61.83 62.92 63.24 63.07 62.72 61.41 62.57 62.19 61.75 61.09 59.59 59.70 59.62 59.52 59.32 59.85 59.49 59.85
30.97 28.50 38.57 42.71 37.17 32.78 32.33 31.39 26.32 21.27 23.47 29.65 37.84 32.52 37.94 44.80 47.25 47.99 48.96 49.93 50.95 49.11 56.73 58.87 60.04 60.91 62.19 63.06 62.58 62.67 62.20 61.24 61.92 61.38 60.95 60.71 60.14 59.83 60.59 59.76 60.03 60.09 59.85 60.00
29.86 30.84 39.90 40.01 39.83 37.82 33.81 29.98 34.50 29.48 33.65 27.87 33.57 37.87 43.57 45.87 46.18 47.32 47.54 49.03 49.11 50.93 57.27 58.69 59.85 61.48 62.52 62.44 62.26 62.35 61.83 61.41 60.73 60.92 60.64 60.35 61.08 60.22 59.72 60.46 60.99 60.46 60.13 61.21
33.96 27.29 36.93 38.77 40.30 38.93 36.90 38.77 28.67 28.30 23.52 23.33 30.79 33.68 36.17 40.79 43.52 45.53 46.42 47.47 50.74 56.41 57.97 58.82 60.28 61.55 62.31 62.22 62.43 61.87 61.96 61.54 60.83 60.73 60.35 60.53 59.73 61.17 61.20 61.34 60.92 60.57 61.03 61.17
34.01 31.05 31.72 36.81 34.77 32.17 34.04 32.94 32.64 31.22 29.82 27.19 25.92 31.58 41.06 42.28 43.65 45.02 48.42 48.81 55.80 57.04 57.97 58.91 60.60 61.60 61.88 61.92 62.56 61.88 61.63 61.36 60.68 60.46 59.55 59.63 60.14 61.45 60.45 61.16 61.10 60.35 60.15 60.48
36.92 32.26 28.09 30.43 37.39 40.86 38.09 35.33 33.98 27.23 27.18 31.00 32.76 33.07 44.71 43.36 44.69 46.52 47.89 55.19 56.90 58.14 58.67 59.59 60.58 61.19 61.23 61.60 61.97 61.69 61.32 61.03 60.74 59.94 60.32 60.07 60.86 60.56 60.72 61.01 61.05 60.03 59.91 60.14
35.83 29.11 23.42 25.84 32.70 37.68 35.62 38.72 37.66 34.81 32.09 30.16 28.51 32.45 44.51 45.53 45.84 47.96 49.20 55.39 56.95 57.75 58.23 59.57 60.17 60.55 61.24 61.36 61.77 61.65 61.08 60.69 60.43 60.39 60.37 60.55 60.30 60.28 60.30 60.60 60.91 60.55 60.41 60.57
39.76 32.80 29.23 22.07 29.14 34.33 32.33 36.46 37.17 34.61 29.88 31.46 33.40 35.60 41.17 44.25 44.92 46.40 50.91 54.92 56.89 57.61 58.76 59.29 59.66 60.21 61.29 61.61 61.65 61.42 59.91 60.10 60.05 60.90 60.49 59.67 59.86 60.06 60.18 60.47 60.76 61.12 61.09 61.30
39.12 31.42 32.96 32.99 34.69 35.40 34.99 35.53 36.03 33.74 35.12 31.17 36.38 35.74 40.84 44.28 45.08 46.51 53.07 56.23 56.73 57.24 58.32 59.06 59.21 59.72 60.64 60.83 61.12 60.76 59.99 59.20 59.64 60.00 60.91 59.53 60.20 60.26 60.37 60.66 60.84 60.74 60.49 61.86
36.84 31.82 33.89 31.69 34.86 35.40 33.91 37.18 36.20 36.05 36.72 36.25 36.62 36.45 45.40 47.23 52.51 52.35 55.74 56.64 56.51 57.40 58.48 59.10 59.66 60.19 60.25 60.23 60.09 59.92 59.65 58.16 59.82 60.69 60.97 61.25 60.57 60.84 60.12 60.19 60.67 59.92 59.97 59.90
34.06 33.99 30.95 26.84 34.35 35.00 30.48 34.96 36.08 37.08 38.93 38.85 34.82 39.91 45.81 49.37 51.95 52.56 55.54 57.14 57.04 57.93 58.65 59.17 59.75 60.24 60.47 60.09 59.79 57.68 58.82 58.49 60.32 61.15 61.69 61.64 60.89 60.66 60.16 60.87 60.79 58.82 58.14 58.06
32.61 30.76 31.23 28.02 31.79 22.85 34.96 43.87 44.28 42.57 42.51 42.26 41.92 43.38 45.75 50.20 54.45 54.27 55.51 57.32 57.73 58.70 59.05 59.70 60.41 60.52 59.88 59.55 58.22 57.17 57.92 59.90 60.64 61.08 62.01 61.49 61.23 60.59 60.93 60.45 59.48 58.44 57.21 56.99
36.87 32.29 29.73 27.99 30.22 33.81 37.71 40.48 39.95 39.56 40.69 47.95 47.91 49.39 50.65 53.14 53.78 53.42 56.70 57.42 56.97 59.53 60.10 60.50 61.22 60.38 58.66 58.38 57.24 58.08 57.04 59.83 60.66 60.87 60.88 61.24 61.08 60.57 60.60 59.62 58.77 58.31 58.01 57.43
37.87 36.69 32.51 29.78 27.66 25.94 35.53 41.27 43.42 43.40 36.93 48.97 49.46 49.87 49.86 51.82 47.80 49.14 55.35 57.58 58.36 60.10 60.66 60.61 60.86 59.57 58.34 57.54 58.35 57.70 56.03 58.74 59.87 60.44 61.02 61.61 61.55 60.97 60.47 59.36 58.75 58.41 58.41 59.78
33.97 33.42 29.63 29.85 29.74 34.61 39.15 39.79 43.58 36.87 40.30 47.66 49.35 49.48 51.58 50.34 52.45 53.35 55.87 57.61 58.16 59.68 60.45 61.27 60.24 58.59 58.21 58.12 58.10 56.64 55.89 56.02 60.24 61.50 61.38 61.28 60.98 60.87 60.61 59.67 59.19 58.94 57.93 57.97
31.70 32.19 32.56 32.71 31.64 28.38 40.64 40.86 37.14 41.95 46.37 49.07 49.21 49.67 51.28 52.18 53.36 54.53 56.43 57.42 58.67 58.30 60.42 61.05 59.36 57.93 58.06 58.47 57.96 56.25 55.44 56.43 58.10 60.82 61.26 60.69 60.54 62.36 61.47 59.99 58.82 59.12 57.51 56.11
32.94 35.96 32.27 31.73 32.88 40.11 43.00 42.09 44.86 46.67 47.05 47.73 48.47 48.72 51.36 50.94 53.46 53.88 55.96 57.80 57.66 59.82 60.12 60.85 58.74 57.42 58.11 58.52 58.27 56.02 56.49 55.94 57.72 60.65 60.24 60.51 61.51 61.01 60.65 60.17 58.78 58.50 56.21 56.71
39.01 42.24 38.02 35.95 39.45 41.23 42.85 45.04 45.97 46.68 46.78 48.51 49.67 49.80 50.89 50.02 53.46 53.62 54.64 56.73 58.24 59.03 60.01 60.64 58.53 57.45 56.96 57.83 58.34 58.15 56.67 56.70 59.98 59.99 60.17 60.64 60.99 59.33 60.01 60.82 60.26 58.96 56.19 55.52
38.04 39.23 37.41 38.32 40.53 41.08 43.92 44.12 44.96 46.35 47.33 47.38 48.53 49.20 50.24 50.89 51.36 52.66 53.73 55.39 57.20 58.98 59.95 61.29 59.32 57.93 57.39 57.73 58.05 57.81 57.63 57.77 59.56 59.96 60.10 60.30 60.49 59.99 59.67 58.71 58.88 60.22 58.29 56.96
40.51 37.40 34.84 33.73 39.89 39.42 40.50 44.04 46.29 45.57 45.80 46.95 47.26 47.56 50.09 51.17 52.03 53.12 52.85 55.43 57.93 57.89 59.53 60.82 60.43 59.14 58.40 58.09 58.29 58.67 57.91 58.76 59.43 58.79 59.46 59.50 59.73 59.71 57.84 54.87 51.26 41.65 44.84 48.53
MSLP
1007.92 1008.13 1006.91 1006.62 1007.49 1007.22 1006.76 1006.21 1005.24 1004.99 1004.52 1004.17 1003.32 1002.02 1001.51 1001.11 1000.96 1000.35 999.74 999.51 999.09 998.74 998.15 998.01 997.97 998.17 998.44 998.63 998.91 999.05 999.59 1000.39 1000.66 1001.50 1002.26 1002.87 1003.46 1004.12 1004.61 1004.87 1005.21 1005.80 1006.14 1006.67
1008.23 1006.60 1006.77 1007.57 1007.59 1007.67 1007.35 1006.66 1005.70 1005.50 1004.65 1003.98 1003.47 1002.34 1001.21 1000.74 1000.32 999.75 999.20 998.96 998.70 998.54 998.01 997.69 997.83 998.33 998.09 998.31 998.67 999.17 999.61 999.98 1000.49 1001.29 1002.04 1002.63 1003.43 1004.09 1004.32 1004.74 1005.13 1005.37 1005.82 1006.23
1007.73 1007.01 1007.25 1007.50 1007.23 1007.04 1006.40 1006.38 1006.36 1006.05 1005.24 1003.76 1004.04 1002.97 1001.66 1000.10 999.79 999.13 998.69 998.17 998.03 997.84 997.61 997.53 997.94 998.07 998.22 998.43 998.75 999.17 999.72 1000.02 1000.55 1001.25 1001.99 1002.95 1003.52 1004.07 1004.59 1004.97 1005.39 1005.60 1005.71 1006.06
1007.44 1007.01 1006.82 1006.78 1006.66 1006.78 1006.05 1006.32 1006.08 1006.20 1006.41 1004.64 1004.86 1002.92 1001.62 999.51 998.38 998.20 998.02 997.66 997.73 997.23 996.84 997.07 997.50 998.18 998.14 998.53 998.95 999.26 999.84 1000.52 1000.74 1001.35 1002.19 1002.92 1003.76 1004.47 1004.70 1004.90 1005.18 1005.38 1005.67 1006.00
1006.55 1006.44 1006.53 1006.50 1006.37 1006.27 1005.47 1006.19 1006.17 1006.41 1005.85 1005.71 1004.88 1004.61 998.06 999.35 997.70 997.60 997.19 997.14 996.61 996.16 996.77 996.71 996.89 997.54 998.25 998.75 999.19 999.67 1000.08 1000.78 1001.16 1001.66 1002.30 1003.04 1003.82 1004.29 1004.59 1004.93 1005.34 1005.63 1005.82 1005.97
1006.65 1006.61 1006.39 1006.12 1005.93 1005.90 1006.09 1005.98 1006.23 1006.26 1006.20 1005.46 1004.34 1004.35 996.98 998.03 996.84 996.70 996.66 996.17 995.93 995.86 996.05 996.56 997.09 997.79 998.50 999.03 999.44 1000.00 1000.53 1001.22 1001.45 1002.06 1002.56 1003.11 1003.79 1004.45 1004.89 1005.34 1005.63 1005.85 1005.97 1006.04
1006.65 1006.31 1005.91 1005.77 1005.93 1005.91 1006.22 1006.77 1006.84 1006.60 1006.00 1003.84 1003.86 1003.34 997.30 996.10 995.72 995.81 996.10 995.76 995.71 995.58 996.30 996.93 997.06 997.82 998.53 999.12 999.71 1000.29 1000.89 1001.64 1001.67 1002.19 1002.82 1003.30 1003.83 1004.35 1004.81 1005.32 1005.62 1005.87 1006.11 1006.28
1007.13 1006.75 1005.93 1005.57 1005.82 1005.99 1005.81 1006.24 1006.18 1006.22 1005.36 1004.07 1003.56 1000.21 997.08 996.54 995.31 994.98 994.99 995.13 995.06 995.35 995.98 996.70 997.01 997.69 998.50 999.19 999.65 1000.54 1001.22 1001.72 1001.86 1002.41 1003.03 1003.43 1003.92 1004.44 1004.86 1005.25 1005.51 1005.72 1005.96 1006.02
1007.59 1007.09 1006.27 1005.80 1005.72 1006.04 1005.57 1005.62 1005.95 1006.07 1005.03 1004.67 1001.82 999.32 997.41 995.83 995.08 994.75 994.44 994.57 994.59 995.16 995.83 996.59 997.33 997.94 998.60 999.35 999.89 1000.50 1001.20 1001.70 1002.04 1002.55 1003.05 1003.54 1003.96 1004.35 1004.75 1004.99 1005.16 1005.52 1005.75 1005.94
1008.09 1007.98 1007.01 1006.22 1005.87 1005.23 1005.43 1005.56 1005.59 1005.76 1005.51 1004.26 1001.14 999.26 996.76 995.36 994.63 994.39 994.24 993.69 994.24 995.19 996.09 996.73 997.38 998.09 998.84 999.51 999.96 1000.62 1001.19 1001.71 1002.16 1002.62 1003.06 1003.58 1003.96 1004.12 1004.49 1004.91 1005.36 1005.55 1005.73 1005.88
1008.67 1008.80 1008.11 1007.37 1006.36 1005.54 1005.47 1005.18 1005.41 1005.30 1004.82 1003.26 1001.27 997.71 995.95 995.00 994.32 993.99 993.39 992.66 993.62 994.72 995.71 996.50 997.37 998.16 998.93 999.66 1000.04 1000.80 1001.32 1001.84 1002.31 1002.69 1003.18 1003.61 1003.96 1004.18 1004.56 1005.08 1005.32 1005.53 1005.74 1005.88
1009.54 1009.71 1009.11 1007.79 1006.38 1005.69 1005.64 1005.49 1005.62 1005.27 1004.12 1002.65 1000.87 996.47 995.08 994.72 994.02 993.76 993.57 993.26 993.59 994.21 995.37 996.26 997.30 998.01 998.94 999.54 1000.14 1000.83 1001.36 1001.91 1002.31 1002.71 1003.19 1003.66 1003.99 1004.37 1004.82 1005.13 1005.29 1005.48 1005.66 1005.95
1010.18 1010.36 1009.73 1007.81 1006.14 1006.02 1005.94 1005.44 1005.50 1004.79 1003.97 1002.44 1001.30 997.01 995.75 994.75 994.10 993.22 993.76 993.79 993.94 994.73 995.70 996.43 997.54 998.12 998.90 999.49 1000.12 1000.78 1001.31 1001.82 1002.26 1002.69 1003.18 1003.66 1004.01 1004.48 1004.85 1005.09 1005.26 1005.37 1005.57 1005.89
1010.83 1010.85 1010.09 1009.26 1007.69 1007.25 1006.52 1005.35 1005.40 1005.20 1004.27 1002.04 1000.14 999.00 996.11 995.07 994.25 993.20 993.82 994.41 993.81 994.62 995.26 996.25 997.35 998.09 998.68 999.41 999.98 1000.62 1001.20 1001.60 1002.12 1002.63 1003.16 1003.66 1004.03 1004.49 1004.83 1005.03 1005.21 1005.27 1005.46 1005.78
1010.74 1010.63 1009.70 1008.90 1008.00 1007.23 1006.14 1005.17 1004.87 1004.88 1004.05 1003.07 1000.52 999.27 996.92 995.30 993.96 993.22 993.17 993.44 994.28 994.70 995.56 996.28 997.07 997.84 998.47 999.13 999.79 1000.38 1000.96 1001.45 1001.97 1002.65 1003.03 1003.65 1004.08 1004.51 1004.77 1005.04 1005.15 1005.25 1005.54 1005.70
1010.16 1010.06 1009.36 1008.09 1007.05 1005.91 1005.02 1004.01 1003.94 1003.62 1003.02 1002.25 1001.00 999.10 997.53 995.44 994.29 992.84 992.65 992.81 993.55 994.32 995.18 996.06 996.81 997.58 998.22 998.76 999.41 1000.09 1000.73 1001.38 1001.81 1002.50 1003.06 1003.61 1004.05 1004.53 1004.88 1005.18 1005.36 1005.57 1005.94 1006.13
1009.75 1009.68 1009.21 1007.28 1006.32 1004.59 1004.00 1002.83 1002.48 1001.82 1001.39 1000.94 1000.03 998.56 996.95 995.79 994.38 994.05 992.68 992.29 992.87 993.76 994.67 995.57 996.24 997.05 997.80 998.40 998.99 999.90 1000.52 1001.14 1001.78 1002.39 1003.02 1003.43 1003.98 1004.50 1004.93 1005.23 1005.57 1005.98 1006.29 1006.54
1008.30 1008.73 1008.70 1007.43 1006.29 1004.91 1002.46 1002.01 1001.81 1001.16 1000.50 999.96 999.13 997.61 996.64 996.36 994.88 994.85 993.28 992.81 992.80 993.29 994.23 995.07 995.89 996.82 997.51 998.24 998.93 999.74 1000.35 1001.04 1001.69 1002.35 1002.89 1003.45 1003.92 1004.40 1004.98 1005.32 1005.73 1006.21 1006.56 1006.86
1007.41 1008.19 1008.01 1007.13 1005.39 1004.23 1002.63 1002.88 1002.78 1002.12 1000.03 999.25 998.76 996.28 996.14 996.16 995.39 995.09 994.23 992.83 993.35 992.88 993.48 994.40 995.35 996.38 997.24 998.04 998.88 999.61 1000.37 1000.97 1001.55 1002.27 1002.78 1003.38 1003.82 1004.41 1004.97 1005.29 1005.82 1006.28 1006.66 1007.08
1006.29 1006.98 1007.56 1006.79 1005.85 1004.42 1003.68 1003.23 1003.70 1003.30 1001.70 999.87 998.94 997.28 995.93 995.84 996.85 996.02 994.63 993.28 993.19 993.43 993.62 994.27 995.33 996.21 997.08 997.92 998.54 999.44 1000.23 1000.93 1001.47 1002.03 1002.51 1003.12 1003.71 1004.35 1004.93 1005.26 1005.85 1006.26 1006.69 1007.12
1006.45 1006.74 1007.06 1006.76 1006.25 1004.80 1004.13 1002.58 1002.29 1002.77 1002.40 1000.89 999.60 998.43 995.97 995.72 997.13 996.15 994.67 993.61 993.27 993.06 993.36 994.18 995.06 995.85 996.68 997.60 998.36 999.31 999.95 1000.69 1001.04 1001.64 1002.37 1003.03 1003.65 1004.28 1004.78 1005.26 1005.83 1006.32 1006.85 1007.35
1007.38 1007.19 1006.34 1006.26 1005.96 1005.42 1004.71 1002.55 1003.07 1003.69 1002.34 1001.43 1000.03 998.36 996.91 996.74 995.81 995.83 994.36 993.94 993.17 993.01 993.57 994.01 994.98 995.92 996.64 997.30 998.10 999.09 999.75 1000.09 1000.81 1001.53 1002.30 1003.00 1003.63 1004.34 1004.87 1005.29 1005.95 1006.46 1006.97 1007.51
1007.76 1007.46 1007.37 1007.45 1007.05 1006.27 1005.69 1005.04 1004.32 1003.68 1002.63 1001.62 1000.93 999.08 996.85 996.08 996.51 995.59 995.01 994.08 993.59 993.31 993.84 994.35 995.14 995.99 996.72 997.17 997.76 998.70 999.31 999.94 1000.74 1001.49 1002.32 1003.00 1003.69 1004.36 1004.94 1005.42 1006.09 1006.71 1007.10 1007.54
1008.23 1007.51 1007.50 1007.54 1006.50 1005.38 1004.81 1004.16 1003.99 1003.31 1002.41 1002.05 1001.16 999.03 997.68 997.48 996.88 996.55 995.53 994.48 994.29 994.45 994.13 994.65 995.41 996.23 996.95 997.35 997.72 998.03 998.88 999.78 1000.58 1001.44 1002.22 1002.95 1003.68 1004.53 1005.06 1005.66 1006.12 1006.61 1006.99 1007.44
1008.10 1007.48 1006.89 1006.25 1005.50 1004.97 1004.34 1003.63 1003.45 1003.61 1002.29 999.50 998.52 998.19 998.09 997.68 996.58 996.14 996.14 995.40 994.83 994.70 995.12 994.71 995.46 996.03 996.78 997.37 997.74 997.98 998.59 999.59 1000.47 1001.21 1002.04 1002.82 1003.56 1004.33 1005.06 1005.75 1006.32 1006.43 1006.58 1006.73
1007.98 1007.39 1007.17 1006.64 1006.00 1005.64 1004.70 1003.96 1002.55 1002.37 1001.55 1000.92 999.94 998.41 997.64 997.25 996.37 996.13 995.93 995.87 995.40 995.54 994.95 994.74 995.04 995.75 996.43 997.13 997.56 997.80 998.30 999.22 1000.15 1001.19 1001.97 1002.61 1003.43 1004.24 1004.86 1005.72 1006.56 1006.52 1006.49 1006.71
Wind_Speed
4 5 19 22 16 14 7 17 8 5 11 15 19 24 18 16 9 14 18 17 19 19 16 14 14 8 7 5 7 9 9 8 9 8 5 5 5 4 4 4 8 8 5 7
5 20 11 7 6 11 13 15 14 9 9 9 13 22 23 22 18 19 21 19 18 8 10 12 7 7 10 9 6 7 7 9 6 5 4 4 4 3 3 4 6 7 8 8
10 6 11 15 12 15 16 18 13 10 10 22 13 12 17 20 13 16 13 13 10 10 14 13 9 10 8 9 9 8 7 10 8 7 6 5 4 4 3 2 3 4 6 6
9 10 14 10 21 13 19 9 13 14 12 16 7 18 22 21 25 20 14 15 10 14 12 9 7 7 9 7 7 8 10 8 8 8 8 8 5 4 3 3 2 4 6 6
8 5 1 12 15 13 19 11 13 14 10 16 16 7 29 7 18 13 14 10 16 17 10 14 11 11 6 8 7 8 10 8 8 8 8 6 5 3 2 2 6 4 3 5
13 9 9 9 10 9 5 9 12 16 2 11 9 11 29 17 22 17 7 14 12 9 10 1 7 11 9 8 9 9 10 6 8 8 8 9 8 6 6 4 4 3 2 2
8 13 14 14 12 10 4 2 2 3 7 17 12 10 24 7 5 10 14 16 12 12 6 9 14 13 12 12 11 9 9 7 8 9 8 8 8 9 8 6 4 4 2 2
3 3 5 2 1 5 7 10 6 7 4 8 7 15 18 17 26 21 23 18 14 8 9 11 14 14 13 13 12 9 9 8 9 9 8 8 8 5 5 5 4 4 3 3
2 4 3 10 6 4 5 10 7 5 14 1 7 10 19 23 24 21 19 11 13 7 11 13 11 12 14 12 11 12 11 8 8 8 7 7 6 7 6 5 4 3 3 3
2 2 6 5 5 6 8 3 5 3 7 9 6 7 11 7 14 10 13 17 7 8 11 13 13 13 10 11 11 9 8 9 8 8 7 6 6 6 6 5 4 5 4 4
3 4 3 5 3 7 1 5 5 4 4 9 6 11 8 13 10 12 17 10 17 16 15 14 13 13 11 11 11 9 8 8 8 7 6 7 6 6 6 5 5 5 4 5
2 3 4 9 16 13 6 9 5 5 12 6 11 18 10 9 10 8 10 8 14 18 17 15 15 15 13 13 11 9 7 8 8 7 6 7 7 6 6 5 5 5 4 3
5 1 4 9 3 3 5 5 0 4 6 19 9 8 9 11 12 17 6 9 13 16 15 15 14 14 14 13 11 10 9 9 7 7 7 7 7 7 6 5 5 5 5 5
3 4 6 6 5 6 8 6 5 0 3 12 19 14 23 19 22 21 7 7 16 17 18 17 14 14 14 13 12 11 8 9 7 7 7 7 7 7 6 5 5 5 4 4
5 5 9 13 17 17 18 18 13 9 8 3 7 9 19 17 17 18 14 17 16 17 17 17 16 14 13 13 12 11 9 8 7 7 8 7 6 6 6 5 5 4 3 4
6 5 6 15 18 19 21 18 14 15 11 11 18 20 18 19 16 7 19 21 21 19 19 18 17 16 15 14 12 12 10 7 8 8 8 7 7 6 6 5 6 6 6 6
6 4 2 7 12 6 6 14 16 6 8 3 8 7 14 13 10 11 16 22 22 21 20 19 19 17 15 14 12 11 10 9 9 9 7 8 7 6 6 6 6 6 6 6
6 6 5 7 7 5 2 10 8 2 10 14 12 19 19 7 4 10 2 11 18 20 19 18 16 14 14 13 10 8 10 10 10 9 8 7 7 7 6 6 7 6 4 6
15 6 4 4 3 4 4 6 6 7 6 4 11 17 6 7 8 9 10 6 7 18 18 17 14 15 13 14 10 11 10 10 11 9 8 8 7 7 7 7 7 5 5 5
13 11 5 3 5 3 2 13 11 13 7 4 16 5 8 9 3 5 12 5 7 15 15 16 15 14 15 12 13 13 11 11 12 10 9 8 8 8 7 7 7 4 4 5
1 2 11 10 6 3 12 22 23 7 7 19 13 14 8 9 5 7 9 4 3 14 17 16 17 17 16 14 14 13 11 11 11 10 8 8 7 8 7 7 4 5 5 6
2 2 3 3 6 3 18 15 10 8 12 13 16 11 8 4 3 6 5 3 3 10 13 18 16 15 14 15 15 13 12 9 9 10 10 8 7 6 6 8 5 6 7 7
3 5 3 3 2 8 5 8 9 11 11 14 15 11 10 12 7 8 4 3 6 12 9 11 13 13 13 14 14 14 12 8 8 11 10 9 8 6 6 8 7 6 6 6
4 2 1 5 6 8 7 10 11 14 14 14 15 4 15 9 4 3 6 7 7 3 9 8 11 12 12 11 13 14 10 9 12 12 11 10 10 7 6 5 6 6 5 5
3 6 6 3 4 10 4 12 12 16 14 15 16 13 12 8 4 7 8 10 8 6 1 9 11 10 11 10 11 11 10 12 12 12 12 11 8 9 7 4 4 5 5 8
1 4 3 4 8 5 12 13 15 14 17 19 20 20 15 9 8 11 9 7 8 6 5 5 12 13 10 10 11 11 11 13 14 12 10 9 8 6 6 6 3 6 1 9
Wind_Direction
211 178 215 209 217 235 259 244 270 207 208 232 243 264 266 252 246 262 266 265 258 256 251 249 241 222 174 182 176 171 152 157 140 150 135 118 134 127 114 156 155 177 177 191
206 231 227 246 228 227 252 267 268 293 284 255 246 253 264 264 261 250 256 258 250 246 260 254 253 185 184 172 159 141 143 147 130 118 113 117 129 140 139 157 170 179 173 179
215 235 213 240 239 243 232 236 253 260 306 289 297 282 284 276 257 261 269 255 267 250 258 261 189 203 160 166 167 146 133 127 123 119 102 77 63 50 56 88 136 186 172 157
251 230 253 246 231 235 248 247 244 251 258 260 210 278 264 267 264 264 244 252 247 246 249 249 210 168 181 157 140 134 130 131 127 126 118 136 145 147 195 161 152 160 151 158
226 294 189 238 244 235 254 253 235 236 234 249 250 295 265 261 261 249 252 249 253 259 235 243 186 181 144 138 130 125 120 128 131 129 133 132 126 139 129 108 127 130 144 170
227 233 246 242 261 262 319 242 240 259 222 250 209 201 272 243 250 250 223 241 251 261 259 183 137 133 132 129 126 126 125 130 131 130 131 128 133 129 108 109 108 130 141 215
233 241 242 245 258 269 218 62 252 258 210 236 168 209 234 256 273 230 237 249 252 247 159 164 147 147 144 140 134 132 128 131 128 123 121 126 118 118 124 137 143 154 180 194
186 288 180 34 136 248 187 177 190 191 205 240 262 231 245 230 259 267 263 244 251 257 168 164 159 148 142 142 135 133 134 130 122 120 120 116 117 122 130 147 158 164 168 181
138 229 332 317 311 147 304 219 199 292 273 274 228 275 280 277 277 274 267 255 246 180 159 152 138 139 141 141 137 143 134 129 123 123 122 116 121 126 135 140 137 143 158 155
169 278 253 291 326 239 196 241 187 197 204 239 252 250 238 233 248 272 268 255 179 140 141 141 139 136 140 139 132 128 132 132 135 130 131 145 142 142 135 126 148 159 163 159
343 140 294 350 247 231 241 217 192 158 207 220 258 251 196 253 243 274 283 239 157 155 153 145 139 139 137 137 135 140 136 132 134 140 159 138 145 137 127 142 157 161 180 170
308 121 274 252 259 252 268 282 174 210 234 248 242 246 306 252 287 293 293 176 158 153 150 143 143 141 143 145 141 148 142 141 154 160 150 139 124 129 131 141 152 173 163 174
351 342 305 319 328 196 248 144 349 285 204 236 248 274 221 278 297 285 165 180 147 142 138 136 145 147 152 151 150 154 153 155 162 150 139 133 131 135 145 158 171 158 146 187
57 246 217 227 274 326 275 271 303 304 265 244 242 272 273 275 271 283 166 202 151 150 147 144 148 154 153 155 154 157 159 158 160 145 137 141 143 148 164 164 175 148 167 180
175 243 236 256 266 273 266 262 245 236 249 246 278 293 274 284 262 269 201 159 153 149 150 153 155 156 156 155 153 158 167 153 151 143 141 153 146 144 151 152 138 126 107 153
170 255 267 274 269 257 244 244 234 237 235 250 255 274 280 266 290 223 176 162 160 158 157 157 156 157 161 159 158 160 168 151 144 147 151 147 138 148 145 132 125 105 109 98
187 212 260 269 337 330 221 235 222 197 181 206 239 236 298 312 357 324 176 165 159 162 159 161 162 162 161 164 159 160 164 141 147 143 145 142 148 150 153 139 122 118 123 115
214 178 214 277 263 234 198 40 63 303 226 213 237 253 262 262 48 305 344 170 161 156 157 162 162 160 158 161 154 148 140 146 144 146 152 152 156 144 141 136 131 133 131 125
209 191 269 257 309 282 266 41 1 355 290 330 297 257 208 53 14 315 317 75 186 164 159 160 159 157 154 158 151 150 140 147 146 155 156 160 152 142 149 139 143 143 134 124
195 206 205 291 285 284 333 331 305 299 247 351 334 16 105 69 77 280 291 11 160 162 158 154 158 153 155 155 150 151 148 150 159 164 169 156 151 151 155 144 147 144 130 124
202 136 226 243 254 207 355 316 281 194 1 322 319 303 82 74 259 248 274 345 225 165 159 153 156 160 161 152 151 159 156 161 171 166 151 145 149 152 155 140 132 134 125 118
314 260 275 243 232 303 0 346 47 323 321 318 317 322 39 68 228 244 264 290 130 146 149 156 155 160 158 154 153 159 166 175 155 160 149 145 146 152 154 137 122 133 132 127
12 338 335 4 292 275 311 342 309 318 344 323 314 311 38 12 328 332 256 14 36 115 124 149 150 151 161 160 160 162 182 149 138 146 148 147 144 131 149 136 134 128 131 144
268 332 258 204 215 335 317 323 334 340 329 309 292 321 53 332 327 309 10 46 70 28 107 124 135 154 166 166 165 170 162 139 146 149 148 149 148 145 148 134 144 151 152 151
251 322 302 258 287 322 243 327 335 309 307 319 338 16 54 325 7 53 33 29 38 42 218 148 155 158 172 168 169 169 152 141 150 151 153 158 154 162 149 125 164 168 180 175
306 272 342 285 325 300 300 319 318 327 338 336 331 340 358 357 22 31 24 33 35 22 321 144 169 162 169 174 177 173 149 150 151 153 158 163 159 161 147 145 126 31 303 194